SNUSAT-1

Last updated on March 15, 2019, 12:02 a.m. UTC

1 42733U 98067MN  19073.81661424  .22721454  12576-4  28234-3 0  9995
2 42733  51.6021  29.3648 0005433 200.7020 239.9908 16.49371243103244

Satellite is not in orbit.